• In Deutschland
  • Länderverzeichnis
  • Für 7 Tage
  • Wassertemperatur
  • Satellitenkarten
  • Wetterkarte
  • Widgets
  • user-avatar
    Anmelden

    Stündliche Wetter Ch'ŏngjin

    Heute, 20 August, Sonntag

    Zeit Temperatur Niederschläge Wind Luftdruck Luftfeuchtigkeit
    00:00 +22°C° 0 mm 1 m/S 760 mmHg 96%
    01:00 +22°C° 0 mm 1 m/S 760 mmHg 96%
    02:00 +22°C° 0 mm 1 m/S 760 mmHg 96%
    03:00 +22°C° 0 mm 1 m/S 760 mmHg 95%
    04:00 +22°C° 0 mm 1 m/S 760 mmHg 95%
    05:00 +22°C° 0 mm 1 m/S 760 mmHg 95%
    06:00 +22°C° 0 mm 1 m/S 760 mmHg 95%
    07:00 +23°C° 0 mm 1 m/S 760 mmHg 90%
    08:00 +25°C° 0 mm 1 m/S 760 mmHg 84%
    09:00 +27°C° 0 mm 1 m/S 760 mmHg 78%
    10:00 +28°C° 0 mm 2 m/S 759 mmHg 76%
    11:00 +28°C° 0 mm 2 m/S 759 mmHg 74%
    12:00 +29°C° 0 mm 2 m/S 759 mmHg 73%
    13:00 +29°C° 0 mm 3 m/S 758 mmHg 75%
    14:00 +28°C° 0 mm 3 m/S 758 mmHg 77%
    15:00 +27°C° 0 mm 3 m/S 758 mmHg 81%
    16:00 +27°C° 0 mm 3 m/S 758 mmHg 83%
    17:00 +26°C° 0 mm 3 m/S 758 mmHg 85%
    18:00 +26°C° 0 mm 3 m/S 758 mmHg 87%
    19:00 +25°C° 0 mm 3 m/S 758 mmHg 90%
    20:00 +24°C° 0 mm 2 m/S 758 mmHg 93%
    21:00 +24°C° 0 mm 2 m/S 758 mmHg 96%
    22:00 +23°C° 0 mm 2 m/S 758 mmHg 96%
    23:00 +23°C° 0 mm 2 m/S 758 mmHg 96%

    Morgen, 21 August, Montag

    Zeit Temperatur Niederschläge Wind Luftdruck Luftfeuchtigkeit
    00:00 +23°C° 0 mm 2 m/S 758 mmHg 96%
    01:00 +23°C° 0,1 mm 2 m/S 758 mmHg 96%
    02:00 +23°C° 0,1 mm 2 m/S 758 mmHg 96%
    03:00 +23°C° 0,1 mm 2 m/S 757 mmHg 96%
    04:00 +23°C° 0,2 mm 2 m/S 757 mmHg 96%
    05:00 +23°C° 0,2 mm 2 m/S 757 mmHg 96%
    06:00 +23°C° 0,2 mm 2 m/S 757 mmHg 96%
    07:00 +23°C° 1,3 mm 2 m/S 757 mmHg 95%
    08:00 +24°C° 1,3 mm 2 m/S 757 mmHg 94%
    09:00 +24°C° 1,3 mm 2 m/S 756 mmHg 93%
    10:00 +25°C° 2,5 mm 2 m/S 756 mmHg 93%
    11:00 +25°C° 2,5 mm 2 m/S 756 mmHg 94%
    12:00 +25°C° 2,5 mm 2 m/S 756 mmHg 94%
    13:00 +26°C° 0,4 mm 2 m/S 756 mmHg 91%
    14:00 +27°C° 0,4 mm 2 m/S 755 mmHg 88%
    15:00 +28°C° 0,4 mm 3 m/S 755 mmHg 84%
    16:00 +27°C° 0 mm 2 m/S 755 mmHg 87%
    17:00 +27°C° 0 mm 2 m/S 755 mmHg 89%
    18:00 +26°C° 0 mm 2 m/S 755 mmHg 91%
    19:00 +26°C° 0 mm 2 m/S 755 mmHg 93%
    20:00 +25°C° 0 mm 2 m/S 755 mmHg 95%
    21:00 +24°C° 0 mm 2 m/S 755 mmHg 97%
    22:00 +24°C° 0 mm 1 m/S 755 mmHg 96%
    23:00 +24°C° 0 mm 1 m/S 755 mmHg 96%

    übermorgen, 22 August, Dienstag

    Zeit Temperatur Niederschläge Wind Luftdruck Luftfeuchtigkeit
    00:00 +24°C° 0 mm 1 m/S 755 mmHg 96%
    01:00 +24°C° 0 mm 1 m/S 755 mmHg 95%
    02:00 +24°C° 0 mm 1 m/S 755 mmHg 95%
    03:00 +24°C° 0 mm 1 m/S 755 mmHg 94%
    04:00 +24°C° 0 mm 1 m/S 755 mmHg 93%
    05:00 +24°C° 0 mm 1 m/S 755 mmHg 93%
    06:00 +24°C° 0 mm 1 m/S 756 mmHg 93%
    07:00 +26°C° 0 mm 1 m/S 756 mmHg 87%
    08:00 +28°C° 0 mm 1 m/S 756 mmHg 81%
    09:00 +30°C° 0 mm 1 m/S 756 mmHg 75%
    10:00 +31°C° 0 mm 1 m/S 756 mmHg 71%
    11:00 +32°C° 0 mm 2 m/S 756 mmHg 68%
    12:00 +34°C° 0 mm 2 m/S 756 mmHg 64%
    13:00 +34°C° 0,1 mm 3 m/S 755 mmHg 65%
    14:00 +34°C° 0,1 mm 3 m/S 755 mmHg 65%
    15:00 +34°C° 0,1 mm 3 m/S 755 mmHg 66%
    16:00 +33°C° 0,2 mm 3 m/S 755 mmHg 71%
    17:00 +33°C° 0,2 mm 3 m/S 755 mmHg 77%
    18:00 +31°C° 0,2 mm 2 m/S 755 mmHg 82%
    19:00 +29°C° 0 mm 2 m/S 756 mmHg 83%
    20:00 +28°C° 0 mm 2 m/S 756 mmHg 84%
    21:00 +27°C° 0 mm 2 m/S 757 mmHg 86%
    22:00 +27°C° 0 mm 2 m/S 757 mmHg 85%
    23:00 +27°C° 0 mm 2 m/S 757 mmHg 85%

    23 August, Mittwoch

    Zeit Temperatur Niederschläge Wind Luftdruck Luftfeuchtigkeit
    00:00 +27°C° 0 mm 2 m/S 757 mmHg 85%
    01:00 +26°C° 0,2 mm 2 m/S 757 mmHg 86%
    02:00 +26°C° 0,2 mm 2 m/S 757 mmHg 87%
    03:00 +26°C° 0,2 mm 2 m/S 757 mmHg 87%
    04:00 +26°C° 0,2 mm 2 m/S 757 mmHg 88%
    05:00 +25°C° 0,2 mm 2 m/S 757 mmHg 89%
    06:00 +25°C° 0,2 mm 2 m/S 757 mmHg 90%
    07:00 +25°C° 0,2 mm 2 m/S 757 mmHg 89%
    08:00 +25°C° 0,2 mm 2 m/S 757 mmHg 89%
    09:00 +25°C° 0,2 mm 2 m/S 757 mmHg 88%
    10:00 +27°C° 0 mm 2 m/S 757 mmHg 81%
    11:00 +29°C° 0 mm 2 m/S 757 mmHg 73%
    12:00 +31°C° 0 mm 1 m/S 757 mmHg 66%
    13:00 +30°C° 0,1 mm 2 m/S 756 mmHg 68%
    14:00 +30°C° 0,1 mm 2 m/S 756 mmHg 70%
    15:00 +29°C° 0,1 mm 3 m/S 755 mmHg 72%
    16:00 +29°C° 0,1 mm 2 m/S 755 mmHg 75%
    17:00 +29°C° 0,1 mm 2 m/S 755 mmHg 79%
    18:00 +28°C° 0,1 mm 2 m/S 755 mmHg 82%
    19:00 +27°C° 0 mm 2 m/S 755 mmHg 85%
    20:00 +26°C° 0 mm 2 m/S 755 mmHg 87%
    21:00 +25°C° 0 mm 2 m/S 756 mmHg 90%
    22:00 +25°C° 0 mm 2 m/S 755 mmHg 89%
    23:00 +25°C° 0 mm 2 m/S 755 mmHg 88%

    24 August, Donnerstag

    Zeit Temperatur Niederschläge Wind Luftdruck Luftfeuchtigkeit
    00:00 +25°C° 0 mm 1 m/S 754 mmHg 87%
    01:00 +25°C° 0 mm 1 m/S 754 mmHg 87%
    02:00 +25°C° 0 mm 1 m/S 753 mmHg 86%
    03:00 +25°C° 0 mm 1 m/S 753 mmHg 85%
    04:00 +25°C° 0,2 mm 1 m/S 752 mmHg 87%
    05:00 +25°C° 0,2 mm 1 m/S 752 mmHg 89%
    06:00 +24°C° 0,2 mm 1 m/S 751 mmHg 91%
    07:00 +25°C° 0,9 mm 1 m/S 751 mmHg 92%
    08:00 +25°C° 0,9 mm 1 m/S 751 mmHg 93%
    09:00 +26°C° 0,9 mm 1 m/S 750 mmHg 94%
    10:00 +27°C° 0,6 mm 1 m/S 750 mmHg 90%
    11:00 +28°C° 0,6 mm 2 m/S 749 mmHg 86%
    12:00 +29°C° 0,6 mm 2 m/S 749 mmHg 83%
    13:00 +30°C° 0 mm 3 m/S 749 mmHg 68%
    14:00 +31°C° 0 mm 3 m/S 749 mmHg 54%
    15:00 +34°C° 0 mm 4 m/S 748 mmHg 39%
    16:00 +32°C° 0 mm 4 m/S 749 mmHg 42%
    17:00 +29°C° 0 mm 3 m/S 749 mmHg 44%
    18:00 +27°C° 0 mm 3 m/S 750 mmHg 47%
    19:00 +26°C° 0 mm 3 m/S 750 mmHg 51%
    20:00 +23°C° 0 mm 4 m/S 751 mmHg 55%
    21:00 +21°C° 0 mm 5 m/S 752 mmHg 59%
    22:00 +20°C° 0 mm 4 m/S 752 mmHg 60%
    23:00 +20°C° 0 mm 4 m/S 752 mmHg 62%

    25 August, Freitag

    Zeit Temperatur Niederschläge Wind Luftdruck Luftfeuchtigkeit
    00:00 +20°C° 0 mm 4 m/S 752 mmHg 64%
    01:00 +20°C° 0 mm 4 m/S 752 mmHg 65%
    02:00 +19°C° 0 mm 3 m/S 752 mmHg 66%
    03:00 +19°C° 0 mm 3 m/S 752 mmHg 68%
    04:00 +19°C° 0 mm 3 m/S 752 mmHg 67%
    05:00 +19°C° 0 mm 3 m/S 752 mmHg 67%
    06:00 +19°C° 0 mm 3 m/S 753 mmHg 66%
    07:00 +21°C° 0 mm 3 m/S 753 mmHg 60%
    08:00 +24°C° 0 mm 3 m/S 753 mmHg 54%
    09:00 +25°C° 0 mm 3 m/S 753 mmHg 47%
    10:00 +27°C° 0 mm 4 m/S 752 mmHg 42%
    11:00 +29°C° 0 mm 4 m/S 752 mmHg 38%
    12:00 +30°C° 0 mm 5 m/S 752 mmHg 33%
    13:00 +30°C° 0 mm 5 m/S 751 mmHg 33%
    14:00 +32°C° 0 mm 5 m/S 751 mmHg 34%
    15:00 +32°C° 0 mm 6 m/S 750 mmHg 34%
    16:00 +29°C° 0 mm 5 m/S 750 mmHg 40%
    17:00 +28°C° 0 mm 5 m/S 750 mmHg 46%
    18:00 +27°C° 0 mm 4 m/S 750 mmHg 53%
    19:00 +25°C° 0 mm 4 m/S 751 mmHg 55%
    20:00 +23°C° 0 mm 4 m/S 751 mmHg 57%
    21:00 +21°C° 0 mm 3 m/S 751 mmHg 59%
    22:00 +20°C° 0 mm 3 m/S 751 mmHg 60%
    23:00 +20°C° 0 mm 3 m/S 751 mmHg 60%
    Mehr zeigen